IK4PKL-13 Weather Reports


Display with metric or nautical units.
time (UTC)temp
F
wind
direction
speed
MPH
gust
MPH
rain 1hr
in
rain 24hr
in
rain mn
in
humidity
%
barometer
mb
20260508004527 55 152 0.0 1.0 0.00 0.00 0.00 91 1017.0
20260508003549 55 138 0.0 1.0 0.00 0.00 0.00 91 1017.1
20260508002528 56 157 1.0 2.0 0.00 0.00 0.00 90 1017.2
20260508001548 56 170 1.0 2.0 0.00 0.00 0.00 89 1017.3
20260508000544 57 151 0.0 1.0 0.00 0.00 0.00 88 1017.3
20260507235536 57 0.0 0.0 0.00 0.00 0.00 88 1017.5
20260507234554 58 143 0.0 1.0 0.00 0.00 0.00 88 1017.4
20260507233536 58 0.0 0.0 0.00 0.00 0.00 88 1017.3
20260507232537 58 136 0.0 1.0 0.00 0.00 0.00 88 1017.3
20260507231547 58 143 0.0 1.0 0.00 0.00 0.00 87 1017.4
20260507230530 58 118 0.0 1.0 0.00 0.00 0.00 87 1017.5
20260507224539 58 128 0.0 2.0 0.00 0.00 0.00 86 1017.6
20260507223546 59 118 1.0 2.0 0.00 0.00 0.00 86 1017.6
20260507222539 59 111 0.0 1.0 0.00 0.00 0.00 86 1017.3
20260507221530 59 115 1.0 2.0 0.00 0.00 0.00 86 1017.3
20260507220544 59 118 2.0 3.0 0.00 0.00 0.00 86 1017.3
20260507215533 59 111 1.0 3.0 0.00 0.00 0.00 86 1017.3
20260507214523 59 112 2.0 3.0 0.00 0.00 0.00 85 1017.2
20260507213517 59 116 1.0 3.0 0.00 0.00 0.00 85 1017.2
20260507212539 60 117 2.0 3.0 0.00 0.00 0.00 85 1017.2
20260507211531 60 125 2.0 4.0 0.00 0.00 0.00 85 1017.2
20260507210523 61 118 1.0 3.0 0.00 0.00 0.00 83 1017.1
20260507205547 61 113 0.0 1.0 0.00 0.00 0.00 83 1017.1
20260507204545 61 130 0.0 2.0 0.00 0.00 0.00 83 1017.2
20260507203546 61 0.0 1.0 0.00 0.00 0.00 82 1017.4
20260507202538 62 149 1.0 2.0 0.00 0.00 0.00 81 1017.4
20260507201531 62 0.0 0.0 0.00 0.00 0.00 81 1017.4
20260507200540 62 0.0 0.0 0.00 0.00 0.00 80 1017.3
20260507195530 63 0.0 1.0 0.00 0.00 0.00 78 1017.4
20260507194525 63 125 1.0 2.0 0.00 0.00 0.00 77 1017.4
20260507193547 63 0.0 0.0 0.00 0.00 0.00 78 1017.3
20260507192538 63 139 0.0 1.0 0.00 0.00 0.00 77 1017.2
20260507191531 64 119 1.0 3.0 0.00 0.00 0.00 75 1017.1
20260507190522 64 114 1.0 3.0 0.00 0.00 0.00 76 1017.0
20260507185550 64 143 0.0 1.0 0.00 0.00 0.00 76 1017.0
20260507184541 64 124 0.0 1.0 0.00 0.00 0.00 76 1016.9
20260507183548 65 114 0.0 1.0 0.00 0.00 0.00 76 1016.7
20260507182540 65 132 1.0 2.0 0.00 0.00 0.00 75 1016.8
20260507181547 66 133 1.0 3.0 0.00 0.00 0.00 75 1016.7
20260507180539 66 120 2.0 4.0 0.00 0.00 0.00 74 1016.4
20260507175531 67 131 1.0 7.0 0.00 0.00 0.00 73 1016.3
20260507174543 67 116 2.0 9.0 0.00 0.00 0.00 74 1016.3
20260507173518 67 103 4.0 8.0 0.00 0.00 0.00 75 1016.2
20260507172539 67 103 4.0 10.0 0.00 0.00 0.00 77 1016.2
20260507171531 67 103 3.0 9.0 0.00 0.00 0.00 77 1016.2
20260507170524 67 105 2.0 9.0 0.00 0.00 0.00 79 1016.1
20260507165549 68 99 3.0 10.0 0.00 0.00 0.00 77 1016.2
20260507164619 68 111 4.0 8.0 0.00 0.00 0.00 75 1016.2
20260507163531 68 107 3.0 8.0 0.00 0.00 0.00 72 1016.1
20260507162522 68 101 3.0 7.0 0.00 0.00 0.00 67 1016.2
20260507161547 68 65 3.0 10.0 0.00 0.00 0.00 64 1016.3
20260507160522 68 59 3.0 8.0 0.00 0.00 0.00 59 1016.2
20260507155547 69 78 2.0 8.0 0.00 0.00 0.00 59 1016.3
20260507154539 68 89 3.0 8.0 0.00 0.00 0.00 60 1016.4
20260507153531 68 53 5.0 11.0 0.00 0.00 0.00 60 1016.4
20260507152522 68 61 4.0 9.0 0.00 0.00 0.00 57 1016.4
20260507151547 69 83 3.0 13.0 0.00 0.00 0.00 53 1016.4
20260507150539 69 83 3.0 9.0 0.00 0.00 0.00 51 1016.3
20260507145532 69 64 5.0 11.0 0.00 0.00 0.00 51 1016.4
20260507144522 68 65 4.0 10.0 0.00 0.00 0.00 55 1016.4
20260507143548 69 54 4.0 8.0 0.00 0.00 0.00 61 1016.5
20260507142538 68 55 3.0 9.0 0.00 0.00 0.00 58 1016.6
20260507141531 69 60 4.0 11.0 0.00 0.00 0.00 55 1016.5
20260507140524 69 46 5.0 11.0 0.00 0.00 0.00 56 1016.6
20260507135547 68 86 4.0 9.0 0.00 0.00 0.00 58 1016.5
20260507134538 68 54 4.0 9.0 0.00 0.00 0.00 55 1016.6
20260507133531 68 43 4.0 9.0 0.00 0.00 0.00 57 1016.6
20260507132522 69 41 4.0 11.0 0.00 0.00 0.00 56 1016.5
20260507131547 69 52 4.0 11.0 0.00 0.00 0.00 57 1016.6
20260507130540 68 24 6.0 11.0 0.00 0.00 0.00 60 1016.7
20260507125531 69 31 5.0 10.0 0.00 0.00 0.00 58 1016.5
20260507124524 68 24 6.0 13.0 0.00 0.00 0.00 59 1016.5
20260507123546 68 29 6.0 13.0 0.00 0.00 0.00 59 1016.6
20260507122538 69 31 5.0 10.0 0.00 0.00 0.00 56 1016.7
20260507121530 70 43 4.0 10.0 0.00 0.00 0.00 54 1016.6
20260507120602 70 50 4.0 9.0 0.00 0.00 0.00 51 1016.7
20260507115546 69 53 4.0 8.0 0.00 0.00 0.00 51 1016.7
20260507114538 68 53 4.0 13.0 0.00 0.00 0.00 54 1016.8
20260507113531 68 35 5.0 11.0 0.00 0.00 0.00 53 1016.8
20260507112523 68 55 5.0 9.0 0.00 0.00 0.00 56 1016.9
20260507111546 68 27 7.0 10.0 0.00 0.00 0.00 54 1016.9
20260507110538 68 52 4.0 10.0 0.00 0.00 0.00 55 1016.9
20260507105546 69 43 4.0 13.0 0.00 0.00 0.00 58 1017.0
20260507104538 69 17 4.0 10.0 0.00 0.00 0.00 54 1016.9
20260507103532 69 33 6.0 11.0 0.00 0.00 0.00 57 1016.9
20260507102543 69 28 6.0 13.0 0.00 0.00 0.00 56 1017.0
20260507101547 70 332 4.0 8.0 0.00 0.00 0.00 54 1016.8
20260507100559 69 41 4.0 7.0 0.00 0.00 0.00 55 1016.9
20260507095531 69 343 4.0 9.0 0.00 0.00 0.00 55 1017.0
20260507094523 69 24 4.0 8.0 0.00 0.00 0.00 56 1017.0
20260507093547 68 346 5.0 9.0 0.00 0.00 0.00 57 1017.0
20260507092600 68 352 3.0 7.0 0.00 0.00 0.00 58 1016.9
20260507091530 68 19 4.0 8.0 0.00 0.00 0.00 59 1016.9
20260507090524 68 20 3.0 9.0 0.00 0.00 0.00 60 1016.9
20260507085547 67 41 3.0 8.0 0.00 0.00 0.00 61 1016.9
20260507084558 67 10 4.0 10.0 0.00 0.00 0.00 64 1016.9
20260507083552 67 22 5.0 9.0 0.00 0.00 0.00 66 1016.8
20260507082522 67 20 4.0 9.0 0.00 0.00 0.00 68 1016.6
20260507081546 69 36 3.0 8.0 0.00 0.00 0.00 56 1016.4
20260507080539 71 157 1.0 3.0 0.00 0.00 0.00 53 1016.3
20260507075552 70 179 2.0 4.0 0.00 0.00 0.00 56 1016.3
20260507074523 70 203 1.0 4.0 0.00 0.00 0.00 56 1016.3
20260507073547 69 238 2.0 4.0 0.00 0.00 0.00 57 1016.3
20260507071531 69 50 1.0 4.0 0.00 0.01 0.00 61 1016.4
20260507070524 69 113 1.0 2.0 0.00 0.01 0.00 62 1016.4
20260507065531 68 126 1.0 3.0 0.00 0.01 0.00 65 1016.3
20260507064523 67 86 1.0 2.0 0.00 0.01 0.00 69 1016.3
20260507063546 65 106 1.0 3.0 0.00 0.01 0.00 73 1016.4
20260507062538 63 89 1.0 3.0 0.00 0.01 0.00 77 1016.4
20260507061532 64 51 2.0 3.0 0.00 0.01 0.00 77 1016.4
20260507060523 64 132 0.0 1.0 0.00 0.01 0.00 77 1016.3
20260507055546 63 97 0.0 3.0 0.00 0.01 0.00 81 1016.3
20260507054538 61 122 1.0 2.0 0.00 0.01 0.00 84 1016.1
20260507053530 59 186 2.0 4.0 0.00 0.01 0.00 88 1016.0
20260507052522 59 181 0.0 2.0 0.00 0.01 0.00 88 1016.0
20260507051606 59 0.0 0.0 0.00 0.01 0.00 88 1015.9
20260507050539 59 0.0 0.0 0.00 0.01 0.00 88 1016.0
20260507045517 60 91 0.0 1.0 0.00 0.01 0.00 88 1015.6
20260507044524 60 187 1.0 1.0 0.00 0.02 0.00 88 1015.5
20260507043606 60 125 0.0 1.0 0.00 0.03 0.00 88 1015.3
20260507042538 60 130 1.0 3.0 0.00 0.04 0.00 88 1015.3
20260507041547 59 130 1.0 3.0 0.00 0.05 0.00 88 1015.3
20260507040600 59 135 1.0 3.0 0.00 0.05 0.00 88 1015.1
20260507035530 59 113 1.0 2.0 0.00 0.05 0.00 87 1015.1
20260507034522 59 118 1.0 3.0 0.00 0.05 0.00 86 1015.0
20260507033547 59 127 1.0 4.0 0.00 0.05 0.00 89 1015.0
20260507032538 59 115 1.0 2.0 0.00 0.05 0.00 89 1015.1
20260507031531 59 117 1.0 3.0 0.00 0.05 0.00 88 1015.1
20260507030522 59 135 1.0 3.0 0.00 0.05 0.00 88 1015.1
20260507025546 59 0.0 0.0 0.00 0.05 0.00 87 1015.0
20260507024539 60 0.0 0.0 0.00 0.05 0.00 86 1015.0
20260507023530 60 0.0 0.0 0.00 0.05 0.00 86 1014.9
20260507022524 60 0.0 0.0 0.00 0.05 0.00 86 1014.9
20260507021530 60 114 0.0 1.0 0.00 0.05 0.00 85 1015.0
20260507020538 61 104 0.0 1.0 0.00 0.05 0.00 85 1015.0
20260507015551 61 120 0.0 1.0 0.00 0.05 0.00 85 1015.0
20260507014542 61 0.0 0.0 0.00 0.05 0.00 84 1014.9
20260507013547 61 108 0.0 1.0 0.00 0.05 0.00 84 1014.9
20260507012522 61 134 1.0 2.0 0.00 0.05 0.00 83 1015.0
20260507011547 62 0.0 0.0 0.00 0.05 0.00 82 1015.0
20260507010539 62 89 1.0 3.0 0.00 0.05 0.00 82 1015.0
20260507005531 62 98 1.0 2.0 0.00 0.05 0.00 79 1015.0